Tracking 19485 objects as of 21-Jan-2019
HD Live streaming from Space Station
objects crossing your sky now

FLOCK 3R 1

Track FLOCK 3R 1 now!
10-day predictions
FLOCK 3R 1 is classified as:


NORAD ID: 43747
Int'l Code: 2018-096AE
Perigee: 476.7 km
Apogee: 508.3 km
Inclination: 97.5 °
Period: 94.3 minutes
Semi major axis: 6863 km
RCS: Unknown
Launch date: November 29, 2018
Source: United States (US)
Launch site: SRIHARIKOTA (SRI)
aabbcc
Your satellite tracking list
Your tracking list is empty




NASA's NSSDC Master Catalog

Two Line Element Set (TLE):
1 43747U 18096AE  19020.87245531 +.00000855 +00000-0 +35088-4 0  9992
2 43747 097.4795 090.9658 0023003 139.5441 310.6006 15.26811640008042
Source of the keplerian elements: AFSPC